NKS2585 KLAS-KBUR

Flight info

Callsign NKS2585
Flight time 0h 55m
Altitude 22000
Route RADYR2 SLVRR KREME JANNY5
Aircraft A319/M-VGDW/C

Departure

Time 2026-05-05 04:06
Airport Harry Reid International Airport (KLAS)

Arrival

Time 2026-05-05 05:01
Airport Hollywood Burbank/Bob Hope Airport (KBUR)
Time Latitude Longitude Altitude Speed Heading
2026-05-05 03:55 36.08386 -115.15419 2128 ft 0 kts 245°
2026-05-05 03:56 36.08381 -115.15433 2129 ft 4 kts 244°
2026-05-05 03:56 36.08362 -115.15482 2132 ft 9 kts 244°
2026-05-05 03:56 36.08331 -115.15558 2137 ft 9 kts 239°
2026-05-05 03:56 36.08287 -115.15571 2140 ft 6 kts 156°
2026-05-05 03:57 36.08247 -115.15547 2143 ft 9 kts 156°
2026-05-05 03:57 36.08174 -115.15511 2146 ft 12 kts 157°
2026-05-05 03:57 36.08103 -115.15470 2151 ft 11 kts 156°
2026-05-05 03:57 36.08037 -115.15427 2152 ft 11 kts 151°
2026-05-05 03:58 36.07969 -115.15385 2151 ft 11 kts 154°
2026-05-05 03:58 36.07905 -115.15349 2156 ft 10 kts 156°
2026-05-05 03:58 36.07844 -115.15316 2157 ft 10 kts 157°
2026-05-05 03:58 36.07801 -115.15247 2154 ft 13 kts 89°
2026-05-05 03:59 36.07803 -115.15109 2148 ft 19 kts 90°
2026-05-05 03:59 36.07793 -115.14940 2143 ft 22 kts 95°
2026-05-05 03:59 36.07778 -115.14729 2131 ft 27 kts 95°
2026-05-05 03:59 36.07763 -115.14503 2122 ft 27 kts 93°
2026-05-05 04:00 36.07753 -115.14266 2112 ft 30 kts 90°
2026-05-05 04:00 36.07752 -115.14025 2104 ft 28 kts 90°
2026-05-05 04:00 36.07751 -115.13779 2096 ft 28 kts 89°
2026-05-05 04:00 36.07752 -115.13549 2087 ft 20 kts 90°
2026-05-05 04:01 36.07753 -115.13360 2080 ft 24 kts 89°
2026-05-05 04:01 36.07757 -115.13125 2066 ft 29 kts 90°
2026-05-05 04:01 36.07754 -115.12898 2056 ft 25 kts 90°
2026-05-05 04:01 36.07753 -115.12705 2045 ft 26 kts 90°
2026-05-05 04:02 36.07755 -115.12547 2040 ft 13 kts 87°
2026-05-05 04:02 36.07759 -115.12449 2041 ft 10 kts 87°
2026-05-05 04:02 36.07761 -115.12373 2035 ft 8 kts 88°
2026-05-05 04:02 36.07763 -115.12316 2033 ft 6 kts 87°
2026-05-05 04:03 36.07764 -115.12294 2032 ft 0 kts 86°
2026-05-05 04:03 36.07766 -115.12264 2036 ft 6 kts 87°
2026-05-05 04:03 36.07766 -115.12194 2034 ft 10 kts 95°
2026-05-05 04:03 36.07723 -115.12129 2028 ft 9 kts 166°
2026-05-05 04:04 36.07661 -115.12125 2029 ft 9 kts 171°
2026-05-05 04:04 36.07643 -115.12167 2035 ft 0 kts 270°
2026-05-05 04:05 36.07643 -115.12231 2034 ft 29 kts 270°
2026-05-05 04:05 36.07640 -115.12808 2052 ft 104 kts 269°
2026-05-05 04:05 36.07639 -115.13971 2103 ft 165 kts 270°
2026-05-05 04:05 36.07650 -115.15431 2755 ft 166 kts 270°
2026-05-05 04:06 36.07686 -115.16712 3535 ft 165 kts 270°
2026-05-05 04:06 36.07705 -115.18155 4180 ft 173 kts 267°
2026-05-05 04:06 36.07689 -115.19724 4432 ft 194 kts 266°
2026-05-05 04:06 36.07556 -115.21497 4704 ft 219 kts 256°
2026-05-05 04:07 36.07238 -115.23423 5235 ft 235 kts 255°
2026-05-05 04:07 36.06563 -115.25263 6076 ft 238 kts 232°
2026-05-05 04:07 36.05294 -115.26630 6745 ft 253 kts 208°
2026-05-05 04:07 36.03614 -115.27430 7498 ft 262 kts 201°
2026-05-05 04:08 36.01879 -115.28205 8359 ft 267 kts 201°
2026-05-05 04:08 36.00121 -115.28997 9205 ft 270 kts 201°
2026-05-05 04:08 35.98298 -115.29635 10011 ft 276 kts 192°
2026-05-05 04:08 35.96345 -115.30106 10357 ft 298 kts 192°
2026-05-05 04:09 35.94234 -115.30621 10688 ft 317 kts 192°
2026-05-05 04:09 35.92040 -115.31161 11360 ft 325 kts 192°
2026-05-05 04:09 35.89812 -115.31711 12126 ft 328 kts 192°
2026-05-05 04:09 35.87564 -115.32265 12875 ft 331 kts 192°
2026-05-05 04:10 35.85294 -115.32821 13602 ft 334 kts 193°
2026-05-05 04:10 35.83011 -115.33382 14327 ft 336 kts 193°
2026-05-05 04:10 35.80711 -115.33946 15019 ft 339 kts 193°
2026-05-05 04:10 35.78389 -115.34516 15695 ft 342 kts 194°
2026-05-05 04:11 35.76051 -115.35089 16372 ft 344 kts 194°
2026-05-05 04:11 35.73695 -115.35666 17012 ft 347 kts 194°
2026-05-05 04:11 35.71319 -115.36247 17652 ft 349 kts 194°
2026-05-05 04:11 35.68934 -115.36827 18267 ft 352 kts 194°
2026-05-05 04:12 35.66521 -115.37412 18883 ft 354 kts 194°
2026-05-05 04:12 35.64132 -115.38008 19462 ft 356 kts 197°
2026-05-05 04:12 35.61815 -115.39038 20035 ft 355 kts 209°
2026-05-05 04:12 35.59731 -115.40652 20612 ft 355 kts 220°
2026-05-05 04:13 35.57941 -115.42794 21188 ft 356 kts 229°
2026-05-05 04:13 35.56304 -115.45029 21709 ft 358 kts 228°
2026-05-05 04:13 35.54633 -115.47297 21870 ft 357 kts 228°
2026-05-05 04:13 35.52953 -115.49564 21909 ft 352 kts 228°
2026-05-05 04:14 35.51330 -115.51749 21910 ft 350 kts 228°
2026-05-05 04:14 35.49687 -115.53954 21908 ft 349 kts 228°
2026-05-05 04:14 35.48043 -115.56162 21905 ft 350 kts 228°
2026-05-05 04:14 35.46408 -115.58360 21904 ft 349 kts 228°
2026-05-05 04:15 35.44767 -115.60563 21905 ft 349 kts 228°
2026-05-05 04:15 35.43129 -115.62766 21904 ft 350 kts 228°
2026-05-05 04:15 35.41488 -115.64975 21904 ft 350 kts 228°
2026-05-05 04:15 35.39850 -115.67176 21908 ft 350 kts 228°
2026-05-05 04:16 35.38212 -115.69375 21906 ft 350 kts 228°
2026-05-05 04:16 35.36572 -115.71576 21913 ft 350 kts 228°
2026-05-05 04:16 35.34928 -115.73780 21915 ft 350 kts 228°
2026-05-05 04:16 35.33170 -115.75841 21911 ft 350 kts 223°
2026-05-05 04:17 35.31372 -115.77851 21914 ft 350 kts 223°
2026-05-05 04:17 35.29571 -115.79867 21919 ft 350 kts 224°
2026-05-05 04:17 35.27774 -115.81881 21922 ft 350 kts 224°
2026-05-05 04:17 35.25977 -115.83894 21927 ft 350 kts 224°
2026-05-05 04:18 35.24208 -115.85872 21933 ft 349 kts 223°
2026-05-05 04:18 35.22413 -115.87875 21937 ft 349 kts 223°
2026-05-05 04:18 35.20621 -115.89874 21938 ft 349 kts 223°
2026-05-05 04:18 35.18834 -115.91870 21938 ft 349 kts 223°
2026-05-05 04:19 35.17039 -115.93873 21939 ft 348 kts 223°
2026-05-05 04:19 35.15247 -115.95874 21942 ft 349 kts 224°
2026-05-05 04:19 35.13460 -115.97867 21944 ft 348 kts 223°
2026-05-05 04:19 35.11671 -115.99860 21948 ft 348 kts 223°
2026-05-05 04:20 35.09882 -116.01849 21949 ft 348 kts 224°
2026-05-05 04:20 35.08093 -116.03836 21949 ft 348 kts 223°
2026-05-05 04:20 35.06307 -116.05822 21948 ft 348 kts 224°
2026-05-05 04:20 35.04516 -116.07814 21947 ft 348 kts 224°
2026-05-05 04:21 35.02730 -116.09799 21947 ft 348 kts 223°
2026-05-05 04:21 35.00932 -116.11789 21946 ft 348 kts 223°
2026-05-05 04:21 34.99140 -116.13773 21947 ft 348 kts 224°
2026-05-05 04:21 34.97352 -116.15755 21947 ft 347 kts 224°
2026-05-05 04:22 34.95563 -116.17737 21948 ft 347 kts 224°
2026-05-05 04:22 34.93775 -116.19716 21953 ft 347 kts 224°
2026-05-05 04:22 34.92138 -116.21860 21958 ft 346 kts 233°
2026-05-05 04:22 34.90907 -116.24368 21960 ft 345 kts 243°
2026-05-05 04:23 34.89896 -116.27015 21962 ft 345 kts 244°
2026-05-05 04:23 34.88876 -116.29662 21961 ft 345 kts 243°
2026-05-05 04:23 34.87863 -116.32264 21960 ft 344 kts 243°
2026-05-05 04:23 34.86823 -116.34928 21956 ft 344 kts 243°
2026-05-05 04:24 34.85807 -116.37531 21954 ft 345 kts 243°
2026-05-05 04:24 34.84781 -116.40168 21951 ft 345 kts 243°
2026-05-05 04:24 34.83755 -116.42801 21954 ft 345 kts 243°
2026-05-05 04:25 34.81695 -116.48083 21957 ft 345 kts 243°
2026-05-05 04:25 34.80668 -116.50717 21956 ft 345 kts 243°
2026-05-05 04:25 34.79641 -116.53354 21956 ft 345 kts 243°
2026-05-05 04:25 34.78806 -116.56097 21959 ft 347 kts 253°
2026-05-05 04:26 34.78421 -116.58990 21968 ft 346 kts 260°
2026-05-05 04:26 34.78152 -116.61897 21962 ft 344 kts 260°
2026-05-05 04:26 34.77874 -116.64786 21963 ft 344 kts 259°
2026-05-05 04:26 34.77591 -116.67666 21960 ft 344 kts 259°
2026-05-05 04:27 34.77403 -116.69583 21964 ft 344 kts 260°
2026-05-05 04:27 34.77120 -116.72473 21894 ft 345 kts 259°
2026-05-05 04:27 34.76837 -116.75374 21759 ft 345 kts 260°
2026-05-05 04:27 34.76556 -116.78267 21644 ft 344 kts 259°
2026-05-05 04:28 34.76275 -116.81152 21528 ft 343 kts 259°
2026-05-05 04:28 34.75995 -116.84035 21417 ft 344 kts 260°
2026-05-05 04:28 34.75711 -116.86926 21309 ft 344 kts 259°
2026-05-05 04:28 34.75423 -116.89814 21195 ft 344 kts 259°
2026-05-05 04:29 34.75133 -116.92701 21089 ft 344 kts 259°
2026-05-05 04:29 34.74839 -116.95584 20976 ft 344 kts 259°
2026-05-05 04:29 34.74542 -116.98472 20865 ft 343 kts 259°
2026-05-05 04:29 34.74246 -117.01352 20759 ft 344 kts 260°
2026-05-05 04:30 34.73951 -117.04238 20646 ft 343 kts 259°
2026-05-05 04:30 34.73658 -117.07111 20537 ft 343 kts 260°
2026-05-05 04:30 34.73368 -117.09952 20428 ft 343 kts 260°
2026-05-05 04:30 34.73075 -117.12832 20321 ft 343 kts 260°
2026-05-05 04:31 34.72780 -117.15710 20207 ft 344 kts 260°
2026-05-05 04:31 34.72484 -117.18590 20100 ft 343 kts 260°
2026-05-05 04:31 34.72187 -117.21466 19987 ft 343 kts 260°
2026-05-05 04:31 34.71892 -117.24338 19884 ft 342 kts 260°
2026-05-05 04:32 34.71597 -117.27215 19772 ft 342 kts 260°
2026-05-05 04:32 34.71300 -117.30083 19665 ft 342 kts 260°
2026-05-05 04:32 34.71000 -117.32952 19551 ft 342 kts 260°
2026-05-05 04:32 34.70696 -117.35822 19437 ft 342 kts 260°
2026-05-05 04:33 34.70393 -117.38683 19321 ft 341 kts 260°
2026-05-05 04:33 34.70091 -117.41548 19210 ft 342 kts 260°
2026-05-05 04:33 34.69789 -117.44411 19096 ft 341 kts 260°
2026-05-05 04:33 34.69490 -117.47274 18945 ft 342 kts 260°
2026-05-05 04:34 34.69191 -117.50127 18533 ft 339 kts 260°
2026-05-05 04:34 34.68891 -117.52961 18182 ft 338 kts 260°
2026-05-05 04:34 34.68588 -117.55789 17822 ft 337 kts 260°
2026-05-05 04:34 34.68285 -117.58609 17469 ft 337 kts 261°
2026-05-05 04:35 34.67986 -117.61394 17120 ft 336 kts 261°
2026-05-05 04:35 34.67684 -117.64236 16758 ft 335 kts 261°
2026-05-05 04:35 34.67393 -117.66996 16414 ft 333 kts 261°
2026-05-05 04:35 34.67100 -117.69782 16068 ft 332 kts 261°
2026-05-05 04:36 34.66805 -117.72559 15716 ft 330 kts 261°
2026-05-05 04:36 34.66509 -117.75322 15368 ft 329 kts 261°
2026-05-05 04:36 34.66216 -117.78075 15024 ft 328 kts 261°
2026-05-05 04:36 34.65925 -117.80811 14682 ft 326 kts 261°
2026-05-05 04:37 34.65634 -117.83539 14339 ft 325 kts 261°
2026-05-05 04:37 34.65343 -117.86248 14099 ft 324 kts 261°
2026-05-05 04:37 34.65049 -117.88957 13830 ft 322 kts 261°
2026-05-05 04:37 34.64756 -117.91655 13695 ft 322 kts 261°
2026-05-05 04:38 34.64463 -117.94354 13558 ft 322 kts 261°
2026-05-05 04:38 34.64168 -117.97046 13422 ft 321 kts 261°
2026-05-05 04:38 34.63870 -117.99731 13295 ft 321 kts 261°
2026-05-05 04:38 34.63576 -118.02411 13167 ft 320 kts 261°
2026-05-05 04:39 34.63283 -118.05096 13034 ft 320 kts 261°
2026-05-05 04:39 34.62853 -118.07734 12775 ft 320 kts 254°
2026-05-05 04:39 34.62267 -118.10396 11912 ft 329 kts 254°
2026-05-05 04:39 34.61665 -118.13089 11230 ft 331 kts 254°
2026-05-05 04:40 34.61072 -118.15728 10793 ft 325 kts 254°
2026-05-05 04:40 34.60484 -118.18347 10351 ft 320 kts 254°
2026-05-05 04:40 34.59910 -118.20900 10198 ft 306 kts 254°
2026-05-05 04:40 34.59356 -118.23331 10078 ft 293 kts 254°
2026-05-05 04:41 34.58822 -118.25664 9942 ft 281 kts 255°
2026-05-05 04:41 34.58309 -118.27930 9644 ft 277 kts 255°
2026-05-05 04:41 34.57809 -118.30191 9202 ft 279 kts 255°
2026-05-05 04:41 34.57312 -118.32459 8809 ft 278 kts 256°
2026-05-05 04:42 34.56816 -118.34727 8428 ft 278 kts 256°
2026-05-05 04:42 34.56322 -118.36983 8068 ft 276 kts 255°
2026-05-05 04:42 34.55825 -118.39208 7979 ft 271 kts 255°
2026-05-05 04:42 34.55265 -118.41391 7985 ft 272 kts 247°
2026-05-05 04:43 34.54269 -118.43341 7981 ft 274 kts 231°
2026-05-05 04:43 34.52852 -118.44880 7765 ft 274 kts 215°
2026-05-05 04:43 34.51248 -118.46132 7588 ft 273 kts 214°
2026-05-05 04:43 34.49684 -118.47363 7452 ft 263 kts 214°
2026-05-05 04:44 34.48176 -118.48556 7327 ft 255 kts 215°
2026-05-05 04:44 34.46714 -118.49710 7201 ft 247 kts 215°
2026-05-05 04:44 34.45295 -118.50817 7075 ft 238 kts 214°
2026-05-05 04:44 34.43927 -118.51876 6948 ft 227 kts 214°
2026-05-05 04:45 34.42630 -118.52881 6820 ft 216 kts 215°
2026-05-05 04:45 34.41395 -118.53838 6693 ft 205 kts 215°
2026-05-05 04:45 34.40221 -118.54749 6536 ft 197 kts 215°
2026-05-05 04:45 34.39080 -118.55638 6306 ft 194 kts 215°
2026-05-05 04:46 34.37938 -118.56489 6194 ft 194 kts 210°
2026-05-05 04:46 34.36681 -118.57084 6040 ft 195 kts 198°
2026-05-05 04:46 34.35341 -118.57348 5995 ft 196 kts 186°
2026-05-05 04:46 34.34074 -118.57328 6000 ft 198 kts 181°
2026-05-05 04:47 34.32693 -118.57275 5897 ft 199 kts 181°
2026-05-05 04:47 34.31330 -118.57230 5684 ft 198 kts 181°
2026-05-05 04:47 34.29937 -118.57187 5364 ft 202 kts 180°
2026-05-05 04:47 34.28488 -118.57130 4881 ft 213 kts 179°
2026-05-05 04:48 34.26989 -118.57024 4349 ft 225 kts 178°
2026-05-05 04:48 34.25408 -118.56897 4032 ft 225 kts 178°
2026-05-05 04:48 34.23890 -118.56755 3991 ft 213 kts 174°
2026-05-05 04:48 34.22480 -118.56218 3997 ft 213 kts 154°
2026-05-05 04:49 34.21279 -118.55171 3896 ft 215 kts 136°
2026-05-05 04:49 34.20446 -118.53705 3568 ft 210 kts 113°
2026-05-05 04:49 34.20131 -118.52030 3320 ft 201 kts 93°
2026-05-05 04:49 34.20090 -118.50355 3254 ft 198 kts 91°
2026-05-05 04:50 34.20065 -118.48750 2955 ft 186 kts 93°
2026-05-05 04:50 34.19977 -118.47224 2645 ft 177 kts 93°
2026-05-05 04:50 34.19946 -118.45788 2462 ft 168 kts 93°
2026-05-05 04:50 34.19916 -118.44402 2128 ft 162 kts 92°
2026-05-05 04:51 34.19894 -118.43065 1796 ft 157 kts 90°
2026-05-05 04:51 34.19858 -118.41747 1585 ft 156 kts 91°
2026-05-05 04:51 34.19840 -118.40436 1432 ft 156 kts 91°
2026-05-05 04:51 34.19821 -118.39123 1219 ft 157 kts 94°
2026-05-05 04:52 34.19806 -118.37805 966 ft 157 kts 92°
2026-05-05 04:52 34.19785 -118.36472 1082 ft 159 kts 93°
2026-05-05 04:52 34.19751 -118.35134 1373 ft 157 kts 98°
2026-05-05 04:52 34.19327 -118.33968 1659 ft 152 kts 133°
2026-05-05 04:53 34.18431 -118.33356 1902 ft 151 kts 168°
2026-05-05 04:53 34.17397 -118.33536 2071 ft 159 kts 204°
2026-05-05 04:53 34.16596 -118.34439 2407 ft 153 kts 226°
2026-05-05 04:53 34.15861 -118.35361 2785 ft 152 kts 225°
2026-05-05 04:54 34.15123 -118.36264 3164 ft 151 kts 226°
2026-05-05 04:54 34.14388 -118.37162 3537 ft 150 kts 227°
2026-05-05 04:54 34.13655 -118.38060 3913 ft 151 kts 228°
2026-05-05 04:54 34.12918 -118.38967 4296 ft 152 kts 228°
2026-05-05 04:55 34.12165 -118.39892 4676 ft 161 kts 228°
2026-05-05 04:55 34.11308 -118.40956 4873 ft 194 kts 228°
2026-05-05 04:55 34.10269 -118.42253 4990 ft 236 kts 228°
2026-05-05 04:55 34.09189 -118.43967 5003 ft 271 kts 246°
2026-05-05 04:56 34.08845 -118.46100 5002 ft 256 kts 275°
2026-05-05 04:56 34.09408 -118.48065 5000 ft 242 kts 305°
2026-05-05 04:56 34.10660 -118.49297 5004 ft 229 kts 334°
2026-05-05 04:56 34.12111 -118.49925 5007 ft 214 kts 341°
2026-05-05 04:57 34.13483 -118.50432 5006 ft 197 kts 341°
2026-05-05 04:57 34.14773 -118.50898 5006 ft 192 kts 341°
2026-05-05 04:57 34.16088 -118.51217 4982 ft 194 kts 355°
2026-05-05 04:57 34.17452 -118.51066 4968 ft 210 kts 12°
2026-05-05 04:58 34.18871 -118.50409 4731 ft 221 kts 28°
2026-05-05 04:58 34.20075 -118.49282 4325 ft 218 kts 46°
2026-05-05 04:58 34.20925 -118.47792 3938 ft 214 kts 64°
2026-05-05 04:58 34.21284 -118.46126 3641 ft 201 kts 92°
2026-05-05 04:59 34.20740 -118.44657 3318 ft 188 kts 139°
2026-05-05 04:59 34.19650 -118.43957 3063 ft 170 kts 157°
2026-05-05 04:59 34.18928 -118.43026 2836 ft 153 kts 111°
2026-05-05 04:59 34.19131 -118.41826 2357 ft 152 kts 48°
2026-05-05 05:00 34.19853 -118.40927 1908 ft 149 kts 61°
2026-05-05 05:00 34.19994 -118.39761 1554 ft 138 kts 106°
2026-05-05 05:00 34.19821 -118.38632 1230 ft 140 kts 99°
2026-05-05 05:00 34.19803 -118.37434 876 ft 144 kts 94°
2026-05-05 05:01 34.19790 -118.36284 731 ft 124 kts 93°
2026-05-05 05:01 34.19775 -118.35459 719 ft 67 kts 90°
2026-05-05 05:01 34.19767 -118.35125 710 ft 20 kts 91°
2026-05-05 05:01 34.19765 -118.35057 708 ft 5 kts 91°
2026-05-05 05:02 34.19759 -118.35033 707 ft 1 kts 117°
2026-05-05 05:02 34.19726 -118.35017 706 ft 7 kts 149°
2026-05-05 05:02 34.19708 -118.34939 706 ft 9 kts 109°
2026-05-05 05:02 34.19668 -118.34933 706 ft 3 kts 186°
2026-05-05 05:03 34.19654 -118.34935 706 ft 0 kts 185°